EW9499 Weather Reports


time (UTC)temp
C
wind
direction
speed
KPH
gust
KPH
rain 1hr
cm
rain 24hr
cm
rain mn
cm
humidity
%
barometer
mb
20260507155317 14 0.0 6.4 0.00 1.27 0.00 37 1021.4
20260507154317 13 270 1.6 4.8 0.00 1.27 0.00 39 1021.4
20260507153317 13 0.0 1.6 0.00 1.27 0.00 42 1021.1
20260507152317 13 270 1.6 11.3 0.00 1.27 0.00 41 1021.1
20260507151337 12 0.0 1.6 0.00 1.27 0.00 44 1020.9
20260507150317 11 0.0 1.6 0.00 1.27 0.00 46 1020.6
20260507145317 11 0.0 3.2 0.00 1.27 0.00 48 1020.7
20260507144317 10 0.0 4.8 0.00 1.27 0.00 46 1020.7
20260507143337 10 0.0 1.6 0.00 1.27 0.00 49 1020.9
20260507142317 9 0.0 3.2 0.00 1.27 0.00 47 1020.4
20260507141317 8 0.0 1.6 0.00 1.27 0.00 48 1020.6
20260507140317 8 0.0 1.6 0.00 1.27 0.00 47 1020.6
20260507135317 7 0.0 1.6 0.00 1.27 0.00 49 1020.2
20260507134337 6 0.0 1.6 0.00 1.27 0.00 49 1020.2
20260507133317 6 0.0 0.0 0.00 1.27 0.00 50 1020.2
20260507132317 6 0.0 1.6 0.00 1.27 0.00 50 1020.0
20260507131317 5 0.0 1.6 0.00 1.27 0.00 50 1019.5
20260507130317 5 0.0 0.0 0.00 1.27 0.00 50 1019.5
20260507125316 4 0.0 4.8 0.00 1.27 0.00 52 1019.0
20260507124317 4 0.0 1.6 0.00 1.27 0.00 52 1019.0
20260507123317 3 0.0 0.0 0.00 1.27 0.00 52 1018.8
20260507122316 3 0.0 0.0 0.00 1.27 0.00 52 1018.7
20260507121317 3 0.0 3.2 0.00 1.27 0.00 52 1018.7
20260507120316 3 0.0 4.8 0.00 1.27 0.00 52 1018.2
20260507115337 3 0.0 0.0 0.00 1.27 0.00 53 1018.2
20260507114316 3 0.0 6.4 0.00 1.27 0.00 54 1018.3
20260507113316 2 0.0 6.4 0.00 1.27 0.00 55 1018.3
20260507112316 2 0.0 0.0 0.00 1.27 0.00 56 1018.3
20260507111316 3 0.0 0.0 0.00 1.27 0.00 55 1018.7
20260507110336 3 0.0 1.6 0.00 1.27 0.00 55 1018.9
20260507105357 3 0.0 3.2 0.00 1.27 0.00 55 1019.0
20260507104317 3 0.0 0.0 0.00 1.27 0.00 54 1019.0
20260507103317 3 0.0 0.0 0.00 1.27 0.00 54 1019.1
20260507102316 3 0.0 1.6 0.00 1.27 0.00 53 1019.2
20260507101336 3 248 1.6 12.9 0.00 1.27 0.00 54 1019.2
20260507100317 3 0.0 0.0 0.00 1.27 0.00 55 1019.4
20260507095316 3 0.0 4.8 0.00 1.27 0.00 59 1019.3
20260507094317 2 0.0 3.2 0.00 1.27 0.00 65 1018.9
20260507093336 1 0.0 0.0 0.00 1.27 0.00 75 1018.6
20260507092316 0 0.0 3.2 0.00 1.27 0.00 83 1018.2
20260507091316 0 0.0 0.0 0.00 1.27 0.00 86 1018.2
20260507090316 0 0.0 3.2 0.00 1.27 0.00 88 1018.4
20260507085316 0 0.0 0.0 0.00 1.27 0.00 88 1018.5
20260507084316 0 0.0 1.6 0.00 1.27 0.00 89 1018.5
20260507083316 0 0.0 1.6 0.00 1.27 0.00 90 1018.6
20260507082316 0 0.0 3.2 0.00 1.27 0.00 90 1018.7
20260507081316 0 0.0 1.6 0.00 1.27 0.00 90 1018.2
20260507080316 0 0.0 4.8 0.00 1.27 0.00 91 1018.3
20260507075316 0 0.0 4.8 0.00 1.27 0.00 90 1018.5
20260507074316 0 0.0 0.0 0.00 1.27 0.00 91 1018.6
20260507073316 0 0.0 6.4 0.00 1.27 0.00 91 1018.6
20260507072316 0 0.0 1.6 0.00 1.27 0.00 91 1019.3
20260507071316 0 0.0 4.8 0.00 1.27 0.00 91 1018.8
20260507070316 0 0.0 1.6 0.00 1.27 0.00 91 1018.8
20260507065316 0 203 1.6 9.7 0.00 1.27 0.00 91 1018.9
20260507064336 0 0.0 3.2 0.00 1.27 0.00 91 1019.0
20260507063316 0 0.0 1.6 0.00 1.27 0.00 90 1019.2
20260507062316 0 0.0 0.0 0.00 1.27 0.00 91 1018.7
20260507061316 0 0.0 6.4 0.00 1.27 0.00 91 1019.2
20260507060316 0 0.0 0.0 0.00 1.27 0.00 91 1019.2
20260507055316 0 0.0 3.2 0.00 1.27 1.27 91 1019.1
20260507054316 0 0.0 4.8 0.00 1.27 1.27 91 1019.1
20260507053316 0 0.0 0.0 0.00 1.27 1.27 91 1019.1
20260507052316 0 0.0 3.2 0.00 1.27 1.27 91 1019.1
20260507051316 1 0.0 8.0 0.00 1.27 1.27 91 1019.1
20260507050336 1 203 1.6 9.7 0.00 1.27 1.27 91 1019.6
20260507045316 0 0.0 0.0 0.00 1.27 1.27 92 1019.6
20260507044317 0 0.0 1.6 0.00 1.27 1.27 92 1019.3
20260507043336 0 0.0 1.6 0.00 1.27 1.27 92 1019.2
20260507042316 0 0.0 1.6 0.00 1.27 1.27 92 1019.2
20260507041316 0 0.0 0.0 0.00 1.27 1.27 92 1019.2
20260507040316 0 0.0 6.4 0.00 1.27 1.27 92 1018.7
20260507035316 0 0.0 0.0 0.00 1.27 1.27 91 1018.7
20260507034316 0 0.0 0.0 0.00 1.27 1.27 91 1018.9
20260507033316 0 0.0 0.0 0.00 1.27 1.27 91 1018.9
20260507032316 0 0.0 0.0 0.00 1.27 1.27 91 1018.4
20260507031316 0 0.0 0.0 0.00 1.27 1.27 91 1018.4
20260507030316 0 0.0 1.6 0.00 1.27 1.27 89 1018.3
20260507025316 0 0.0 0.0 0.00 1.27 1.27 88 1018.3
20260507024316 0 0.0 0.0 0.00 1.30 1.27 88 1018.2
20260507023316 0 0.0 0.0 0.00 1.30 1.27 87 1018.1
20260507022316 0 0.0 0.0 0.00 1.30 1.27 87 1018.1
20260507021316 0 0.0 0.0 0.00 1.30 1.27 86 1018.6
20260507020316 0 0.0 0.0 0.00 1.30 1.27 85 1018.5
20260507015316 1 0.0 0.0 0.00 1.30 1.27 85 1018.5
20260507014336 1 0.0 0.0 0.00 1.30 1.27 85 1018.6
20260507013336 1 0.0 0.0 0.00 1.30 1.27 84 1018.6
20260507012316 1 0.0 0.0 0.00 1.30 1.27 84 1018.7
20260507011316 1 0.0 0.0 0.00 1.30 1.27 83 1018.7
20260507010316 1 0.0 0.0 0.00 1.32 1.27 83 1018.7
20260507005316 1 0.0 0.0 0.00 1.32 1.27 83 1018.6
20260507004316 1 0.0 0.0 0.00 1.32 1.27 83 1018.5
20260507003316 1 0.0 0.0 0.00 1.32 1.27 82 1018.5
20260507002316 1 0.0 0.0 0.00 1.35 1.27 83 1018.5
20260507001316 1 0.0 0.0 0.00 1.35 1.27 82 1018.5
20260507000316 1 0.0 0.0 0.00 1.37 1.27 80 1018.7
20260506235316 1 0.0 0.0 0.00 1.37 1.27 82 1018.8
20260506234316 1 0.0 0.0 0.00 1.37 1.27 82 1018.6
20260506233315 1 0.0 0.0 0.00 1.40 1.27 82 1018.8
20260506232316 2 0.0 0.0 0.00 1.40 1.27 83 1018.9
20260506231316 2 0.0 0.0 0.00 1.40 1.27 83 1018.8
20260506230316 2 0.0 0.0 0.00 1.40 1.27 85 1018.9
20260506225336 2 0.0 0.0 0.00 1.40 1.27 85 1018.8
20260506224316 2 0.0 0.0 0.00 1.40 1.27 83 1018.7
20260506223336 2 0.0 0.0 0.00 1.40 1.27 84 1018.8
20260506222316 2 0.0 0.0 0.03 1.40 1.27 84 1019.4
20260506221336 2 0.0 3.2 0.05 1.40 1.27 84 1019.5
20260506220316 2 0.0 0.0 0.08 1.40 1.27 82 1019.4
20260506215316 2 0.0 0.0 0.10 1.40 1.27 84 1019.4
20260506214316 2 0.0 0.0 0.13 1.40 1.27 85 1019.5
20260506213318 2 0.0 0.0 0.15 1.42 1.27 86 1019.5
20260506212318 2 0.0 0.0 0.18 1.40 1.24 84 1019.6
20260506211318 2 0.0 0.0 0.20 1.37 1.22 86 1019.6
20260506210317 2 0.0 0.0 0.20 1.35 1.19 86 1019.7
20260506205318 2 0.0 0.0 0.23 1.32 1.17 87 1019.8
20260506204318 2 0.0 0.0 0.25 1.30 1.14 88 1019.9
20260506203318 2 0.0 0.0 0.28 1.27 1.12 89 1019.9
20260506202317 2 0.0 0.0 0.30 1.22 1.07 91 1019.9
20260506201318 1 0.0 0.0 0.33 1.19 1.02 89 1019.4
20260506200317 1 0.0 0.0 0.38 1.17 0.99 89 1019.4
20260506195318 2 0.0 0.0 0.36 1.12 0.94 90 1019.4
20260506194318 1 0.0 0.0 0.33 1.07 0.89 90 1019.8
20260506193318 1 0.0 0.0 0.33 1.02 0.84 90 1019.8
20260506192318 2 0.0 1.6 0.28 0.94 0.79 90 1019.8
20260506191317 2 0.0 0.0 0.25 0.86 0.69 91 1019.8
20260506190317 1 0.0 0.0 0.20 0.79 0.61 91 1019.8
20260506185317 1 0.0 0.0 0.23 0.76 0.58 92 1019.9
20260506184317 1 0.0 0.0 0.25 0.76 0.56 92 1019.3
20260506183317 1 0.0 3.2 0.23 0.71 0.51 92 1019.3
20260506182317 1 0.0 0.0 0.23 0.69 0.48 92 1019.2
20260506181317 1 0.0 0.0 0.20 0.64 0.43 92 1019.2
20260506180338 0 0.0 0.0 0.23 0.61 0.41 92 1019.3
20260506175317 0 0.0 0.0 0.20 0.56 0.36 92 1019.2
20260506174317 0 0.0 4.8 0.20 0.51 0.30 92 1018.8
20260506173317 0 0.0 0.0 0.20 0.51 0.28 92 1018.5
20260506172317 1 0.0 6.4 0.23 0.48 0.25 92 1019.1
20260506171317 1 0.0 0.0 0.20 0.46 0.23 92 1019.1
20260506170317 1 0.0 0.0 0.18 0.41 0.18 93 1019.0
20260506165318 1 0.0 0.0 0.15 0.41 0.15 94 1018.9
20260506164317 1 0.0 0.0 0.10 0.36 0.10 94 1018.8
20260506163317 1 0.0 0.0 0.08 0.33 0.08 94 1018.8
20260506162317 1 0.0 0.0 0.03 0.30 0.03 94 1018.8
20260506161317 1 0.0 0.0 0.03 0.30 0.03 94 1018.7
20260506160317 1 0.0 0.0 0.00 0.28 0.00 94 1018.6